Stations météo

réclame
Mon MeteoGroup
Greifswalder Oie, Allemagne (10097): Température de l'air & dewpoint: 11.11.2017 18:00:00 - 17.11.2017 18:00:00 (CET)Greifswalder Oie, Allemagne (10097): Température de l'air 5cm & Température de l'air -5cm: 11.11.2017 18:00:00 - 17.11.2017 18:00:00 (CET)Greifswalder Oie, Allemagne (10097): Température de l'air -20cm & Température de l'air -100cm: 11.11.2017 18:00:00 - 17.11.2017 18:00:00 (CET)Greifswalder Oie, Allemagne (10097): water temperature: 11.11.2017 18:00:00 - 17.11.2017 18:00:00 (CET)Greifswalder Oie, Allemagne (10097): Vitesse du vent & gusts: 11.11.2017 18:00:00 - 17.11.2017 18:00:00 (CET)Greifswalder Oie, Allemagne (10097): Direction du vent: 11.11.2017 18:00:00 - 17.11.2017 18:00:00 (CET)Greifswalder Oie, Allemagne (10097): reduced air pressure: 11.11.2017 18:00:00 - 17.11.2017 18:00:00 (CET)Greifswalder Oie, Allemagne (10097): visibility: 11.11.2017 18:00:00 - 17.11.2017 18:00:00 (CET)Greifswalder Oie, Allemagne (10097): Ensoleillement: 11.11.2017 18:00:00 - 17.11.2017 18:00:00 (CET)Greifswalder Oie, Allemagne (10097): Quantités de précipitations: 11.11.2017 18:00:00 - 17.11.2017 18:00:00 (CET)
Date & Time tt [°C] td [°C] tt 5cm [°C] tt -5cm [°C] tt -20cm [°C] tt -100cm [°C] tw [°C] ff [km/h] ff [knt] fx [km/h] fx [knt] dd ppp [hPa] vv [km] sd [min] rr [mm]
17.11.2017 18:00:00 6,7 4,6 5,7 5,5 7,3 9,4 7,6 24 13 27 15 SW 1021,7 29 0 0,0
17.11.2017 17:00:00 7,0 4,5 5,9 6,0 7,5 9,4 7,6 22 12 27 14 SW 1021,9 30 0 0,0
17.11.2017 16:00:00 7,6 5,0 6,5 6,8 7,6 9,4 7,7 23 12 31 17 W 1022,2 33 43 0,0
17.11.2017 15:00:00 8,2 5,0 8,3 7,8 7,5 9,4 7,7 26 14 31 17 W 1022,4 14 59 0,0
17.11.2017 14:00:00 8,0 5,3 9,3 8,9 7,3 9,4 7,7 24 13 32 17 W 1022,5 10 60 0,0
17.11.2017 13:00:00 7,7 5,1 9,4 8,5 7,1 9,4 7,7 28 15 35 19 W 1022,6 6 60 0,0
17.11.2017 12:00:00 7,3 4,5 8,9 7,7 6,9 9,4 7,7 27 14 35 19 W 1022,6 6 60 0,0
17.11.2017 11:00:00 7,2 4,3 8,0 6,6 6,8 9,4 7,7 29 16 37 20 W 1022,4 8 60 0,0
17.11.2017 10:00:00 7,0 4,2 6,6 5,7 6,8 9,4 7,6 29 16 35 19 W 1022,1 11 60 0,0
17.11.2017 09:00:00 6,8 4,8 6,2 5,4 6,9 9,4 7,5 29 16 35 19 W 1021,9 18 43 0,0
17.11.2017 08:00:00 6,7 5,0 5,9 5,3 7,0 9,4 7,5 29 15 34 19 WNW 1021,3 21 0 0,0
17.11.2017 07:00:00 7,0 5,1 6,1 5,5 7,2 9,4 7,6 29 15 37 20 WNW 1020,6 23 0 0,0
17.11.2017 06:00:00 6,8 4,9 6,2 5,7 7,4 9,4 7,6 30 16 43 23 WNW 1020,0 24 0 0,0
17.11.2017 05:00:00 6,6 4,8 5,9 6,3 7,5 9,4 7,6 36 19 47 26 NW 1019,4 33 0 0,0
17.11.2017 04:00:00 7,5 6,2 6,7 7,0 7,5 9,4 7,5 32 17 43 23 NW 1018,9 42 0 0,1
17.11.2017 03:00:00 7,7 7,0 7,3 7,2 7,5 9,4 7,5 40 21 48 26 W 1018,0 4,3 0 0,6
17.11.2017 02:00:00 7,7 6,7 7,3 7,1 7,4 9,5 7,5 32 17 42 23 WSW 1017,8 6 0 0,1
17.11.2017 01:00:00 7,7 6,6 7,2 7,1 7,4 9,5 7,5 33 18 39 21 SW 1017,9 4,9 0 0,1
17.11.2017 00:00:00 7,6 6,5 7,1 7,1 7,4 9,5 7,4 30 16 40 21 SW 1018,3 4,3 0 0,0
16.11.2017 23:00:00 7,9 6,4 7,7 7,1 7,4 9,5 7,5 35 19 43 23 SW 1018,5 7 0 0,0
16.11.2017 22:00:00 8,0 6,7 7,2 7,2 7,4 9,5 7,5 31 17 39 21 SSW 1018,7 7 0 0,0
16.11.2017 21:00:00 8,1 6,7 7,4 7,3 7,4 9,5 7,6 31 17 39 21 SW 1019,1 8 0 0,0
16.11.2017 20:00:00 8,2 7,2 7,6 7,2 7,4 9,5 7,6 31 17 38 20 SSW 1019,5 6 0 0,0
16.11.2017 19:00:00 8,2 7,6 7,7 7,3 7,4 9,5 7,4 28 15 32 17 SSW 1019,8 5 0 0,0
16.11.2017 18:00:00 7,9 7,8 7,5 7,1 7,4 9,5 7,4 15 8 29 16 S 1020,2 3,2 0 0,0
16.11.2017 17:00:00 7,6 7,6 7,5 7,3 7,4 9,5 7,4 18 10 30 16 S 1020,8 1,7 0 0,0
16.11.2017 16:00:00 7,3 7,1 7,3 7,3 7,3 9,5 7,5 21 11 27 15 SSW 1021,6 2,2 0 0,0
16.11.2017 15:00:00 7,1 6,8 7,1 7,5 7,2 9,5 7,4 16 8 27 15 S 1022,0 2,7 0 0,0
16.11.2017 14:00:00 6,8 6,5 6,9 7,6 7,1 9,5 7,4 16 9 24 13 S 1022,6 3,8 0 0,0
16.11.2017 13:00:00 6,7 6,3 6,9 7,5 6,9 9,5 7,4 16 9 22 12 S 1023,3 5 0 0,0
16.11.2017 12:00:00 6,4 6,1 6,7 7,3 6,8 9,5 7,4 18 10 25 14 SSW 1023,8 6 0 0,0
16.11.2017 11:00:00 5,8 5,8 6,3 6,8 6,7 9,5 7,3 16 9 22 12 SSW 1024,1 2,8 0 0,0
16.11.2017 10:00:00 5,2 5,2 5,7 6,3 6,6 9,5 7,2 16 8 21 12 SSW 1024,3 0,2 0 0,0
16.11.2017 09:00:00 5,0 5,0 5,2 5,9 6,6 9,5 7,2 10 6 19 10 S 1024,5 0,3 0 0,0
16.11.2017 08:00:00 5,2 5,2 5,3 5,7 6,6 9,5 7,2 12 6 18 10 SSW 1024,8 0,5 0 0,0
16.11.2017 07:00:00 5,4 5,4 5,5 5,8 6,6 9,5 7,3 10 6 16 9 SSW 1024,3 0,1 0 0,0
16.11.2017 06:00:00 5,8 5,8 5,7 5,6 6,6 9,5 7,2 13 7 16 9 W 1024,3 0,1 0 0,0
16.11.2017 05:00:00 5,5 5,5 5,3 5,5 6,6 9,5 7,3 10 5 14 8 WSW 1024,5 1,4 0 0,0
16.11.2017 04:00:00 5,5 5,5 5,2 5,4 6,7 9,5 7,2 9 5 13 7 SSW 1024,6 0,2 0 0,0
16.11.2017 03:00:00 5,1 5,1 4,9 5,6 6,8 9,5 7,3 8 4 14 8 SW 1024,8 0,2 0 0,0
16.11.2017 02:00:00 6,1 6,1 5,5 5,4 6,8 9,5 7,3 10 5 12 6 SW 1024,6 0,2 0 0,0
16.11.2017 01:00:00 6,4 6,4 5,9 5,9 6,9 9,5 7,3 8 4 16 8 W 1024,9 3,6 0 0,0
16.11.2017 00:00:00 6,2 6,1 5,9 6,1 6,9 9,5 7,3 10 5 16 9 SW 1024,8 2,3 0 0,0
15.11.2017 23:00:00 6,2 6,2 6,1 6,2 6,9 9,5 7,3 15 8 22 12 WSW 1024,7 1,2 0 0,0
15.11.2017 22:00:00 6,7 6,5 6,5 6,0 7,0 9,5 7,4 18 10 25 13 WSW 1024,6 0,5 0 0,0
15.11.2017 21:00:00 7,3 7,0 6,3 5,7 7,1 9,5 7,4 18 10 25 13 W 1024,2 3,3 0 0,0
15.11.2017 20:00:00 7,5 7,1 6,5 5,9 7,2 9,5 7,4 21 11 28 15 WSW 1023,9 4,7 0 0,0
15.11.2017 19:00:00 7,2 7,0 6,4 6,0 7,4 9,5 7,4 19 11 27 14 WSW 1023,6 3,3 0 0,0
15.11.2017 18:00:00 7,3 6,9 6,5 6,3 7,5 9,5 7,5 25 13 30 16 WSW 1023,4 6 0 0,0
15.11.2017 17:00:00 7,6 6,8 6,5 6,9 7,6 9,5 7,7 21 11 34 18 W 1023,3 13 0 0,0
15.11.2017 16:00:00 7,8 6,5 7,7 7,7 7,6 9,5 7,8 29 16 35 19 W 1023,1 22 1 0,0
15.11.2017 15:00:00 7,9 6,9 8,0 8,2 7,5 9,5 7,8 23 12 31 17 WSW 1022,8 20 6 0,0
15.11.2017 14:00:00 7,9 7,1 8,2 8,6 7,3 9,5 7,8 21 12 29 15 WSW 1022,9 15 5 0,0
15.11.2017 13:00:00 7,9 6,7 8,8 8,7 7,1 9,5 7,8 24 13 32 17 WSW 1022,7 10 11 0,0
15.11.2017 12:00:00 7,8 6,7 8,5 8,3 6,8 9,6 7,7 24 13 32 17 WSW 1022,7 8 4 0,0
15.11.2017 11:00:00 7,5 6,4 7,9 7,6 6,7 9,6 7,6 27 14 37 20 WSW 1022,7 7 8 0,0
15.11.2017 10:00:00 7,3 6,2 7,5 6,7 6,6 9,6 7,5 30 16 36 19 SW 1022,3 7 12 0,0
15.11.2017 09:00:00 7,0 6,2 6,9 6,3 6,5 9,6 7,4 26 14 31 17 WSW 1022,3 5 0 0,0
15.11.2017 08:00:00 7,1 6,4 6,6 6,2 6,5 9,6 7,4 24 13 37 20 WSW 1021,7 4,4 0 0,0
15.11.2017 07:00:00 7,2 6,4 6,9 6,1 6,4 9,6 7,5 25 14 35 19 WSW 1021,3 5 0 0,0
15.11.2017 06:00:00 7,2 6,5 6,9 6,0 6,4 9,6 7,6 29 15 41 22 WSW 1021,1 7 0 0,0
15.11.2017 05:00:00 7,3 6,4 7,1 6,0 6,4 9,6 7,6 33 18 44 24 WSW 1021,1 8 0 0,0
15.11.2017 04:00:00 7,1 6,4 6,7 5,8 6,4 9,6 7,7 34 18 48 26 WSW 1020,7 8 0 0,0
15.11.2017 03:00:00 6,9 6,3 6,4 5,8 6,3 9,6 7,7 36 19 45 24 WSW 1020,6 7 0 0,0
15.11.2017 02:00:00 7,2 6,4 6,8 5,9 6,3 9,6 7,8 35 19 44 24 WSW 1020,2 7 0 0,0
15.11.2017 01:00:00 7,4 6,5 6,7 5,9 6,3 9,7 7,8 36 19 48 26 W 1019,7 10 0 0,0
15.11.2017 00:00:00 7,3 6,4 6,7 6,0 6,2 9,7 7,9 38 21 48 26 WSW 1019,1 8 0 0,0
14.11.2017 23:00:00 7,3 6,5 6,7 5,9 6,1 9,7 7,9 39 21 49 26 WSW 1018,7 7 0 0,0
14.11.2017 22:00:00 7,3 6,5 6,9 5,7 6,1 9,7 7,9 36 19 49 26 WSW 1018,3 6 0 0,0
14.11.2017 21:00:00 7,2 6,3 6,3 5,5 6,1 9,7 8,1 41 22 54 29 WSW 1017,6 6 0 0,0
14.11.2017 20:00:00 7,0 6,0 6,3 5,7 6,0 9,7 8,2 43 23 58 31 WSW 1016,9 8 0 0,0
14.11.2017 19:00:00 6,8 5,7 6,5 5,7 5,9 9,7 8,1 47 26 61 33 WSW 1016,3 10 0 0,0
14.11.2017 18:00:00 6,5 5,4 6,0 5,5 5,9 9,7 8,1 50 27 61 33 WSW 1015,8 14 0 0,0
14.11.2017 17:00:00 5,9 4,9 5,4 5,2 5,8 9,7 8,0 47 25 56 30 SW 1015,8 16 0 0,1
14.11.2017 16:00:00 5,5 4,0 4,8 5,2 5,8 9,7 - 46 25 58 31 SW 1015,8 17 0 0,2
14.11.2017 15:00:00 5,9 3,8 5,4 5,5 5,7 9,8 - 42 23 51 28 SW 1016,3 19 0 0,0
14.11.2017 14:00:00 6,0 3,8 5,3 5,5 5,6 9,8 - 40 21 50 27 SW 1016,7 25 0 0,1
14.11.2017 13:00:00 6,1 3,3 6,0 5,4 5,4 9,8 - 37 20 44 24 SW 1017,3 28 0 0,0
14.11.2017 12:00:00 5,3 3,1 5,4 5,2 5,2 9,8 - 34 18 41 22 SW 1017,9 18 0 0,0
14.11.2017 11:00:00 5,5 3,4 5,5 4,8 5,1 9,8 - 34 19 41 22 WSW 1018,3 24 9 0,0
14.11.2017 10:00:00 4,3 2,6 4,4 4,0 5,0 9,8 - 34 18 42 23 WSW 1018,4 16 33 0,0
14.11.2017 09:00:00 3,5 1,9 3,4 3,0 5,0 9,8 - 35 19 39 21 SW 1018,3 14 53 0,0
14.11.2017 08:00:00 3,7 2,0 3,0 3,0 5,1 9,8 - 29 16 39 21 SW 1018,4 27 0 0,0
14.11.2017 07:00:00 4,8 2,7 3,9 3,2 5,1 9,8 - 30 16 37 20 WSW 1018,0 54 0 0,0
14.11.2017 06:00:00 4,1 2,8 3,5 3,4 5,2 9,8 - 24 13 33 18 SW 1017,8 29 0 0,0
14.11.2017 05:00:00 4,4 2,8 3,7 3,0 5,3 9,8 - 27 14 31 17 WSW 1017,8 50 0 0,0
14.11.2017 04:00:00 4,3 3,0 3,4 3,3 5,3 9,8 - 24 13 29 16 WSW 1017,8 51 0 0,0
14.11.2017 03:00:00 5,5 3,7 4,9 3,5 5,4 9,8 - 23 12 28 15 WSW 1018,0 70 0 0,0
14.11.2017 02:00:00 5,8 2,3 4,7 3,1 5,5 9,9 - 23 13 31 17 W 1017,7 70 0 0,0
14.11.2017 01:00:00 4,8 1,3 3,8 3,0 5,7 9,9 - 21 11 25 14 WNW 1017,5 70 0 0,0
14.11.2017 00:00:00 4,3 1,6 3,0 3,3 5,9 9,9 - 17 9 29 15 NW 1017,0 70 0 0,0
13.11.2017 23:00:00 4,7 1,7 2,9 3,8 6,0 9,9 - 27 15 34 18 NNW 1016,7 70 0 0,0
13.11.2017 22:00:00 5,8 2,7 5,2 4,3 6,0 9,9 - 28 15 39 21 NNW 1016,6 70 0 0,0
13.11.2017 21:00:00 5,3 2,6 5,0 4,2 6,2 9,9 - 22 12 31 17 NW 1016,0 70 0 0,0
13.11.2017 20:00:00 4,9 1,8 4,3 4,0 6,3 9,9 - 29 16 48 26 NW 1015,6 70 0 0,0
13.11.2017 19:00:00 5,2 1,6 4,7 4,4 6,5 9,9 - 31 17 39 21 NW 1015,0 70 0 0,0
13.11.2017 18:00:00 5,3 0,7 4,1 4,6 6,7 9,9 - 29 16 43 23 N 1014,1 70 0 0,0
13.11.2017 17:00:00 5,7 1,8 4,7 5,1 6,9 9,9 - 34 18 42 23 NNW 1013,5 70 2 0,0
13.11.2017 16:00:00 5,8 2,3 5,0 5,7 7,0 9,9 - 30 16 38 20 N 1012,4 63 30 0,0
13.11.2017 15:00:00 6,3 3,2 5,7 6,9 6,9 10,0 - 29 16 40 22 N 1011,8 70 2 0,0
13.11.2017 14:00:00 6,8 3,2 6,8 7,4 6,8 10,0 - 26 14 35 19 N 1011,2 70 4 0,0
13.11.2017 13:00:00 7,5 3,2 8,8 8,2 6,4 10,0 - 26 14 35 19 N 1010,1 66 27 0,0
13.11.2017 12:00:00 8,3 3,9 10,5 8,1 6,0 10,0 - 31 17 38 20 NNW 1009,7 34 60 0,0
13.11.2017 11:00:00 8,1 3,9 8,8 6,2 5,8 10,0 - 33 18 40 22 NNW 1009,2 33 60 0,0
13.11.2017 10:00:00 7,9 4,4 6,5 4,7 5,8 10,0 - 26 14 36 19 NNW 1008,3 44 60 0,0
13.11.2017 09:00:00 7,2 3,1 5,4 4,2 5,9 10,0 - 29 16 36 20 NNW 1007,7 70 36 0,0
13.11.2017 08:00:00 6,6 3,2 4,2 4,0 6,0 10,0 - 28 15 39 21 N 1006,8 70 0 0,0
13.11.2017 07:00:00 6,3 3,1 3,9 4,3 6,1 10,0 - 31 17 - - NNW 1005,8 70 0 0,0
13.11.2017 06:00:00 6,4 5,2 5,2 4,7 6,2 10,0 - 27 15 35 19 NW 1004,9 59 0 0,0
13.11.2017 05:00:00 5,8 4,7 5,0 5,1 6,2 10,0 - 22 12 29 15 WNW 1004,0 35 0 0,0
13.11.2017 04:00:00 5,9 5,2 5,3 5,2 6,2 10,1 - 21 12 26 14 W 1003,4 8 0 0,2
13.11.2017 03:00:00 5,7 4,9 5,2 5,1 6,2 10,1 - 22 12 26 14 WSW 1002,9 9 0 0,7
13.11.2017 02:00:00 5,7 4,6 5,0 5,3 6,2 10,1 - 17 9 31 17 W 1002,7 13 0 0,5
13.11.2017 01:00:00 6,0 4,6 5,2 5,2 6,2 10,1 - 24 13 29 16 W 1002,0 24 0 0,2
13.11.2017 00:00:00 5,8 4,6 5,1 5,1 6,1 10,1 - 23 13 30 16 W 1001,6 9 0 0,1
12.11.2017 23:00:00 5,5 4,5 5,0 5,1 6,1 10,1 - 26 14 34 18 W 1000,9 9 0 1,0
12.11.2017 22:00:00 5,5 4,4 5,1 4,9 6,2 10,1 - 22 12 29 16 WSW 1000,4 11 0 0,0
12.11.2017 21:00:00 5,2 4,0 5,0 4,9 6,2 10,1 - 22 12 31 17 SW 1000,0 16 0 0,0
12.11.2017 20:00:00 5,7 3,5 5,4 4,8 6,2 10,2 - 24 13 30 16 W 999,2 24 0 0,0
12.11.2017 19:00:00 5,4 3,8 4,8 4,8 6,3 10,2 - 19 11 34 19 WSW 998,9 22 0 0,0
12.11.2017 18:00:00 5,4 3,6 4,9 5,0 6,4 10,2 - 28 15 37 20 SW 998,9 25 0 0,0
12.11.2017 17:00:00 5,7 3,7 5,3 5,2 6,4 10,2 - 34 18 38 21 SW 998,8 27 0 0,0
12.11.2017 16:00:00 5,8 3,9 5,3 5,5 6,5 10,2 - 24 13 33 18 SW 998,4 27 0 0,0
12.11.2017 15:00:00 6,0 3,6 5,8 6,2 6,4 10,2 - 27 15 39 21 SW 998,1 31 15 0,0
12.11.2017 14:00:00 6,1 3,8 6,1 6,3 6,3 10,2 - 30 16 42 23 SW 998,1 39 0 0,0
12.11.2017 13:00:00 6,0 3,9 6,4 6,5 6,1 10,2 - 37 20 46 25 WSW 998,5 33 0 0,0
12.11.2017 12:00:00 6,0 3,7 6,4 6,5 5,8 10,2 - 39 21 49 26 WSW 998,7 16 51 0,0
12.11.2017 11:00:00 5,8 3,5 6,8 5,5 5,6 10,3 - 40 21 54 29 WSW 999,1 6 60 0,0
12.11.2017 10:00:00 5,4 3,5 5,2 4,4 5,5 10,3 - 42 23 58 31 WSW 999,0 9 32 0,0
12.11.2017 09:00:00 5,5 3,6 5,2 4,0 5,6 10,3 - 49 26 58 32 WSW 998,9 8 59 0,0
12.11.2017 08:00:00 5,1 3,5 4,2 3,7 5,6 10,3 - 48 26 58 32 WSW 998,9 33 0 0,0
12.11.2017 07:00:00 5,0 3,5 4,2 3,7 5,7 10,3 - 44 24 63 34 WSW 999,0 28 0 0,0
12.11.2017 06:00:00 4,7 3,0 4,0 3,6 5,7 10,3 - 52 28 61 33 WSW 998,9 27 0 0,0
12.11.2017 05:00:00 5,2 3,3 4,5 3,8 5,8 10,3 - 49 26 63 34 WSW 999,4 26 0 0,0
12.11.2017 04:00:00 4,9 3,4 4,1 3,8 5,9 10,3 - 49 26 59 32 WSW 999,7 31 0 0,0
12.11.2017 03:00:00 5,1 3,7 4,3 4,1 5,9 10,3 - 48 26 59 32 WSW 999,6 34 0 0,0
12.11.2017 02:00:00 5,7 4,0 4,9 4,1 6,0 10,3 - 50 27 61 33 WSW 999,5 35 0 0,0
12.11.2017 01:00:00 5,5 4,0 4,7 4,2 6,1 10,3 - 47 25 56 31 WSW 999,5 35 0 0,0
12.11.2017 00:00:00 5,4 3,9 4,6 4,3 6,1 10,4 - 45 25 55 30 WSW 999,4 38 0 0,0
11.11.2017 23:00:00 5,9 3,8 5,0 4,4 6,2 10,4 - 45 24 52 28 W 999,2 47 0 0,0
11.11.2017 22:00:00 6,3 4,3 5,4 4,3 6,2 10,4 - 42 23 54 29 W 999,0 45 0 0,0
11.11.2017 21:00:00 5,3 3,9 4,5 4,3 6,3 10,4 - 44 24 53 28 WSW 999,0 38 0 0,0
11.11.2017 20:00:00 5,6 3,8 4,7 4,4 6,5 10,4 - 44 24 54 29 WSW 999,0 60 0 0,0
11.11.2017 19:00:00 5,6 4,1 4,7 4,5 6,6 10,4 - 44 24 57 31 WSW 998,8 56 0 0,0
11.11.2017 18:00:00 5,6 3,2 4,0 4,6 6,7 10,4 - 43 23 54 29 WSW 998,6 70 0 0,0

tt = Température de l'air
td = dewpoint
tt 5cm = Température de l'air 5cm
tt -5cm = Température de l'air -5cm
tt -20cm = Température de l'air -20cm
tt -100cm = Température de l'air -100cm
tw = water temperature
ff = Vitesse du vent
fx = gusts
dd = Direction du vent
ppp = reduced air pressure
vv = visibility
sd = Ensoleillement
rr = Quantités de précipitations

stations d'obs. à proximité